Location: Gilevgi
(36.8751°N, 30.0581°E)
Time: 05:15:27
(UTC+00:00)

Okean 1-7 Rocket - Pass Details

Date: 23 March 2026
Orbit: 609 x 643 km, 82.5° (Epoch: 15 April)

Event Time Altitude Azimuth Distance (km) Brightness Sun altitude
Rises 02:56:53 0° 348° (NNW) 2,903 7.0 -13.2°
Reaches altitude 10° 02:59:10 10° 344° (NNW) 1,988 6.1 -12.8°
Maximum altitude 03:03:27 55° 267° (W) 741 3.6 -11.9°
Drops below altitude 10° 03:07:41 10° 189° (S) 1,959 5.9 -11.1°
Sets 03:09:55 0° 185° (S) 2,856 6.8 -10.7°
